Date String (YYYY-MM-DD hh:mm:ss) UTC,Instrument flags,absolute air pressure of the measurement (hPa),sample flow rate (lpm),inlet stack bypass flow (lpm),air temperature of the measurement (°C),ambient temperature measured by the external sensor (°C),aerosol sample conditioner tube jacket temperature (°C),OPC LED temperature (°C),internal box temperature (°C),relative humidity of the measurement (%),span deviation,mass concentration of particles derived from Lorenz-Mie calculation of OPC scattering (μg/m³),mass concentration of particles derived from Lorenz-Mie calculation of OPC scattering (μg/m³),mass concentration of particles derived from Lorenz-Mie calculation of OPC scattering (μg/m³)
DateTimeUTC,F1_M11,P_M11,Q1_M11,Q2_M11,T1_M11,T2_M11,T3_M11,T4_M11,T5_M11,U1_M11,ZSPAN_M11,X0_M11,X2_M11,X1_M11
2023-11-01 12:00:00,SystemResetWarning,0833.3,5.00,000.00,021.5,020.5,000.0,029.9,022.9,11.4,0000.0,0003.75,0002.26,0002.02
2023-11-01 12:01:00,SystemResetWarning,0833.2,5.00,000.00,021.5,020.5,000.0,029.9,022.9,11.4,0000.0,0003.71,0002.20,0001.99
2023-11-01 12:02:00,SystemResetWarning,0833.4,5.00,000.00,021.5,020.5,000.0,029.9,022.9,11.6,0000.0,0003.26,0002.12,0001.94
2023-11-01 12:03:00,SystemResetWarning,0833.4,5.00,000.00,021.5,020.6,000.0,029.9,022.9,12.0,0000.0,0003.18,0002.07,0001.90
2023-11-01 12:04:00,SystemResetWarning,0833.0,5.00,000.00,021.5,020.6,000.0,029.9,023.0,12.2,0000.0,0003.17,0002.06,0001.88
2023-11-01 12:05:00,SystemResetWarning,0833.1,5.00,000.00,021.5,020.6,000.0,029.9,023.0,12.1,0000.0,0003.21,0002.06,0001.86
2023-11-01 12:06:00,SystemResetWarning,0832.8,5.00,000.00,021.5,020.6,000.0,029.9,023.0,12.1,0000.0,0003.26,0002.07,0001.84
2023-11-01 12:07:00,SystemResetWarning,0832.8,5.00,000.00,021.5,020.6,000.0,029.9,023.0,11.9,0000.0,0003.27,0002.07,0001.83
2023-11-01 12:08:00,SystemResetWarning,0832.8,5.00,000.00,021.5,020.6,000.0,029.9,023.0,11.8,0000.0,0003.29,0002.08,0001.83
2023-11-01 12:09:00,SystemResetWarning,0832.8,5.00,000.00,021.5,020.6,000.0,029.9,023.0,11.8,0000.0,0003.27,0002.08,0001.84
2023-11-01 12:10:00,SystemResetWarning,0832.8,5.00,000.00,021.5,020.6,000.0,029.9,023.0,11.8,0000.0,0003.31,0002.07,0001.83
2023-11-01 12:11:00,SystemResetWarning,0832.8,5.00,000.00,021.5,020.6,000.0,029.9,023.0,11.8,0000.0,0003.45,0002.09,0001.84
2023-11-01 12:12:00,SystemResetWarning,0832.8,5.00,000.00,021.5,020.5,000.0,029.9,022.9,11.6,0000.0,0003.41,0002.11,0001.85
2023-11-01 12:13:00,SystemResetWarning,0832.8,5.01,000.00,021.5,020.5,000.0,029.9,022.9,11.4,0000.0,0002.82,0002.13,0001.87
2023-11-01 12:14:00,SystemResetWarning,0832.8,5.01,000.00,021.5,020.5,000.0,029.9,022.9,11.4,0000.0,0002.80,0002.14,0001.90
2023-11-01 12:15:00,SystemResetWarning,0833.2,5.01,000.00,021.5,020.5,000.0,029.9,022.9,11.4,0000.0,0002.75,0002.11,0001.88
2023-11-01 12:16:00,SystemResetWarning,0832.9,5.00,000.00,021.5,020.5,000.0,029.9,022.9,11.3,0000.0,0002.77,0002.11,0001.88
2023-11-01 12:17:00,SystemResetWarning,0832.8,5.00,000.00,021.5,020.5,000.0,029.9,022.9,11.4,0000.0,0002.75,0002.09,0001.87
2023-11-01 12:18:00,SystemResetWarning,0832.8,4.99,000.00,021.5,020.5,000.0,029.9,022.9,11.3,0000.0,0002.82,0002.10,0001.87
2023-11-01 12:19:00,SystemResetWarning,0832.8,4.99,000.00,021.5,020.5,000.0,029.9,022.9,11.3,0000.0,0002.84,0002.10,0001.87
2023-11-01 12:20:00,SystemResetWarning,0832.8,5.02,000.00,021.5,020.5,000.0,029.9,022.9,11.3,0000.0,0002.89,0002.10,0001.86
2023-11-01 12:21:00,SystemResetWarning,0832.8,5.00,000.00,021.5,020.5,000.0,029.9,022.9,11.3,0000.0,0002.82,0002.09,0001.85
2023-11-01 12:22:00,SystemResetWarning,0832.8,4.99,000.00,021.5,020.5,000.0,029.9,023.0,11.3,0000.0,0002.62,0002.05,0001.84
2023-11-01 12:23:00,SystemResetWarning,0832.8,5.01,000.00,021.5,020.6,000.0,029.9,023.0,11.3,0000.0,0002.70,0002.04,0001.83
2023-11-01 12:24:00,SystemResetWarning,0833.3,4.99,000.00,021.6,020.6,000.0,029.9,023.0,11.3,0000.0,0002.64,0002.00,0001.81
2023-11-01 12:25:00,SystemResetWarning,0832.9,5.00,000.00,021.6,020.6,000.0,029.9,022.9,11.4,0000.0,0002.67,0002.00,0001.78
2023-11-01 12:26:00,SystemResetWarning,0833.0,5.00,000.00,021.6,020.6,000.0,029.9,023.0,11.9,0000.0,0002.69,0002.01,0001.78
2023-11-01 12:27:00,SystemResetWarning,0833.0,5.01,000.00,021.6,020.6,000.0,029.9,023.0,11.9,0000.0,0002.61,0001.97,0001.76
2023-11-01 12:28:00,SystemResetWarning,0833.0,5.01,000.00,021.5,020.5,000.0,029.9,022.9,11.6,0000.0,0002.62,0001.93,0001.74
2023-11-01 12:29:00,SystemResetWarning,0833.0,4.99,000.00,021.5,020.5,000.0,029.9,022.9,11.7,0000.0,0003.11,0001.90,0001.71
2023-11-01 12:30:00,SystemResetWarning,0833.3,4.99,000.00,021.5,020.5,000.0,029.9,022.9,11.5,0000.0,0003.71,0001.90,0001.69
2023-11-01 12:31:00,SystemResetWarning,0832.8,5.00,000.00,021.5,020.5,000.0,029.9,022.9,11.4,0000.0,0003.81,0001.91,0001.69
2023-11-01 12:32:00,SystemResetWarning,0832.8,5.01,000.00,021.5,020.5,000.0,029.9,022.9,11.4,0000.0,0003.82,0001.91,0001.69
2023-11-01 12:33:00,SystemResetWarning,0832.8,5.01,000.00,021.5,020.5,000.0,029.9,022.9,11.4,0000.0,0003.82,0001.92,0001.70
2023-11-01 12:34:00,SystemResetWarning,0832.8,5.00,000.00,021.5,020.5,000.0,029.9,022.9,11.4,0000.0,0003.74,0001.93,0001.70
2023-11-01 12:35:00,SystemResetWarning,0832.8,4.99,000.00,021.5,020.5,000.0,029.9,022.9,11.4,0000.0,0003.76,0001.94,0001.70
2023-11-01 12:36:00,SystemResetWarning,0832.7,4.99,000.00,021.5,020.5,000.0,029.9,022.9,11.4,0000.0,0003.70,0001.91,0001.69
2023-11-01 12:37:00,SystemResetWarning,0832.7,5.01,000.00,021.5,020.5,000.0,029.9,022.9,11.2,0000.0,0003.67,0001.89,0001.67
2023-11-01 12:38:00,SystemResetWarning,0832.7,5.00,000.00,021.5,020.5,000.0,029.9,022.9,11.2,0000.0,0003.67,0001.90,0001.67
2023-11-01 12:39:00,SystemResetWarning,0832.7,5.00,000.00,021.5,020.6,000.0,029.9,023.0,11.1,0000.0,0003.57,0001.89,0001.68
2023-11-01 12:40:00,SystemResetWarning,0832.7,5.01,000.00,021.5,020.6,000.0,029.9,023.0,11.3,0000.0,0003.16,0001.92,0001.72
2023-11-01 12:41:00,SystemResetWarning,0832.8,5.01,000.00,021.6,020.6,000.0,029.9,023.0,11.4,0000.0,0002.51,0001.96,0001.75
2023-11-01 12:42:00,SystemResetWarning,0832.8,5.01,000.00,021.6,020.6,000.0,029.9,023.0,11.5,0000.0,0002.47,0001.98,0001.78
2023-11-01 12:43:00,SystemResetWarning,0832.8,5.00,000.00,021.6,020.6,000.0,029.9,022.9,11.9,0000.0,0002.67,0002.04,0001.80
2023-11-01 12:44:00,SystemResetWarning,0832.8,5.00,000.00,021.5,020.6,000.0,029.9,022.9,12.0,0000.0,0002.77,0002.06,0001.80
2023-11-01 12:45:00,SystemResetWarning,0832.8,5.00,000.00,021.5,020.5,000.0,029.9,022.9,12.1,0000.0,0002.75,0002.05,0001.79
2023-11-01 12:46:00,SystemResetWarning,0832.7,5.00,000.00,021.5,020.5,000.0,029.9,022.9,11.8,0000.0,0002.76,0002.06,0001.80
2023-11-01 12:47:00,SystemResetWarning,0832.7,5.00,000.00,021.5,020.5,000.0,029.9,023.0,11.6,0000.0,0002.76,0002.07,0001.80
2023-11-01 12:48:00,SystemResetWarning,0832.7,5.00,000.00,021.5,020.5,000.0,029.9,022.9,11.5,0000.0,0002.81,0002.09,0001.82
2023-11-01 12:49:00,SystemResetWarning,0832.8,5.00,000.00,021.5,020.5,000.0,029.9,022.9,12.1,0000.0,0002.85,0002.11,0001.84
2023-11-01 12:50:00,SystemResetWarning,0832.9,5.00,000.00,021.5,020.5,000.0,029.9,022.9,11.8,0000.0,0003.02,0002.14,0001.82
2023-11-01 12:51:00,SystemResetWarning,0832.7,5.00,000.00,021.5,020.5,000.0,029.9,022.9,11.5,0000.0,0003.00,0002.11,0001.78
2023-11-01 12:52:00,SystemResetWarning,0832.7,5.01,000.00,021.5,020.4,000.0,029.9,022.8,11.5,0000.0,0002.91,0002.04,0001.74
2023-11-01 12:53:00,SystemResetWarning,0832.7,5.00,000.00,021.5,020.4,000.0,029.9,022.8,11.4,0000.0,0004.07,0002.01,0001.72
2023-11-01 12:54:00,SystemResetWarning,0832.7,5.01,000.00,021.5,020.4,000.0,029.9,022.8,11.9,0000.0,0004.16,0002.02,0001.72
2023-11-01 12:55:00,SystemResetWarning,0832.6,4.99,000.00,021.5,020.4,000.0,029.9,022.9,11.7,0000.0,0004.11,0002.02,0001.73
2023-11-01 12:56:00,SystemResetWarning,0832.6,4.99,000.00,021.5,020.4,000.0,029.9,022.9,11.3,0000.0,0004.17,0002.06,0001.75
2023-11-01 12:57:00,SystemResetWarning,0832.6,4.99,000.00,021.5,020.4,000.0,029.9,022.9,11.2,0000.0,0004.29,0002.09,0001.77
2023-11-01 12:58:00,SystemResetWarning,0832.6,5.00,000.00,021.5,020.4,000.0,029.9,022.8,11.1,0000.0,0004.36,0002.14,0001.81
2023-11-01 12:59:00,SystemResetWarning,0832.6,5.00,000.00,021.5,020.4,000.0,029.9,022.8,11.1,0000.0,0004.52,0002.17,0001.82
